Location: Unspecified
(0.0000°N, 0.0000°E)
Time: 08:48:30
(UTC+00:00)

Transit 4A - Pass Details

Date: 03 June 2022
Orbit: 864 x 980 km, 66.8° (Epoch: 24 June)

Event Time Altitude Azimuth Distance (km) Brightness Sun altitude
Rises 01:09:17 0° 220° (SW) 3,589 - -61.8°
Reaches altitude 10° 01:12:06 10° 231° (SW) 2,662 - -61.3°
Maximum altitude 01:17:26 30° 290° (WNW) 1,638 - -60.5°
Drops below altitude 10° 01:22:53 10° 350° (N) 2,706 - -59.6°
Sets 01:25:47 0° 0° (N) 3,659 - -59.1°
